EW3683 Weather Reports


time (UTC)temp
F
wind
direction
speed
knots
gust
knots
rain 1hr
in
rain 24hr
in
rain mn
in
humidity
%
barometer
mb
20260505093052 53 159 0.0 0.0 0.00 0.00 0.00 89 1014.0
20260505091557 53 159 0.0 0.0 0.00 0.00 0.00 89 1014.0
20260505090056 53 159 0.0 0.9 0.00 0.00 0.00 89 1013.9
20260505084550 53 165 0.0 0.9 0.00 0.00 0.00 90 1013.9
20260505083049 53 165 0.0 0.0 0.00 0.00 0.00 90 1013.8
20260505081556 53 165 0.0 0.9 0.00 0.00 0.00 91 1013.6
20260505080046 52 168 0.0 0.0 0.00 0.00 0.00 92 1013.6
20260505074554 52 168 0.0 0.0 0.00 0.00 0.00 91 1013.6
20260505073036 52 168 0.0 0.0 0.00 0.00 0.00 91 1013.4
20260505071534 52 168 0.0 0.0 0.00 0.00 0.00 90 1013.3
20260505070033 52 168 0.0 0.0 0.00 0.00 0.00 90 1013.2
20260505064534 53 168 0.0 1.7 0.00 0.00 0.00 89 1013.1
20260505063038 53 167 0.0 0.9 0.00 0.00 0.00 88 1013.0
20260505061533 54 13 0.0 0.9 0.00 0.00 0.00 88 1012.8
20260505060027 54 13 0.0 0.0 0.00 0.00 0.00 87 1012.8
20260505054529 54 13 0.0 0.0 0.00 0.00 0.00 87 1012.6
20260505053024 55 13 0.0 0.9 0.00 0.00 0.00 87 1012.5
20260505051523 55 40 0.0 1.7 0.00 0.00 0.00 86 1012.2
20260505041520 59 109 0.0 0.9 0.00 0.00 0.00 78 1011.8
20260505040019 60 123 0.0 0.9 0.00 0.00 0.00 77 1011.4
20260505034519 62 18 0.0 0.9 0.00 0.00 0.00 75 1011.3
20260505033029 63 19 0.0 0.9 0.00 0.00 0.00 73 1011.0
20260505031517 64 34 0.0 0.9 0.00 0.00 0.00 72 1010.8
20260505030016 65 34 0.0 0.9 0.00 0.00 0.00 70 1010.5
20260505024535 66 5 0.0 1.7 0.00 0.00 0.00 70 1010.4
20260505023016 67 14 0.0 1.7 0.00 0.00 0.00 70 1010.2
20260505021531 68 42 0.0 1.7 0.00 0.00 0.00 66 1010.2
20260505020014 70 21 0.0 1.7 0.00 0.00 0.00 66 1010.0
20260505014518 71 95 0.0 1.7 0.00 0.00 0.00 65 1010.0
20260505013014 71 259 0.0 0.9 0.00 0.00 0.00 63 1010.0
20260505011513 72 340 0.0 2.6 0.00 0.00 0.00 60 1009.9
20260505010012 73 110 0.0 3.5 0.00 0.00 0.00 60 1009.8
20260505004521 74 355 0.0 2.6 0.00 0.00 0.00 58 1009.8
20260505003011 75 96 0.0 3.5 0.00 0.00 0.00 57 1009.7
20260505001511 75 113 0.9 2.6 0.00 0.00 0.00 56 1009.6
20260505000011 76 78 0.0 1.7 0.00 0.00 0.00 54 1009.6
20260504234509 76 223 0.0 1.7 0.00 0.00 0.00 53 1009.7
20260504233008 77 35 0.9 3.5 0.00 0.00 0.00 48 1009.8
20260504231507 78 321 0.0 1.7 0.00 0.00 0.00 50 1009.9
20260504230006 77 317 0.0 2.6 0.00 0.00 0.00 49 1010.0
20260504224507 77 50 0.9 3.5 0.00 0.00 0.00 51 1010.3
20260504223002 76 327 0.9 3.5 0.00 0.00 0.00 51 1010.4
20260504221501 76 199 0.0 2.6 0.00 0.00 0.00 51 1010.5
20260504220135 76 161 0.0 2.6 0.00 0.00 0.00 50 1010.8
20260504214557 75 335 0.0 2.6 0.00 0.00 0.00 49 1010.9
20260504213117 74 12 0.0 3.5 0.00 0.00 0.00 52 1011.0
20260504211554 73 5 0.0 4.3 0.00 0.00 0.00 53 1011.0
20260504210048 73 111 0.0 2.6 0.00 0.00 0.00 56 1011.3
20260504204600 72 55 0.0 2.6 0.00 0.00 0.00 54 1011.4
20260504203043 71 11 0.9 2.6 0.00 0.00 0.00 58 1011.5
20260504201539 70 169 0.0 5.2 0.00 0.00 0.00 60 1011.7
20260504200043 69 312 0.9 4.3 0.00 0.00 0.00 59 1011.7
20260504194540 69 130 0.0 3.5 0.00 0.00 0.00 61 1011.8
20260504193033 68 35 0.0 3.5 0.00 0.00 0.00 63 1011.9
20260504191536 67 28 0.0 4.3 0.00 0.00 0.00 64 1011.9
20260504190036 67 15 1.7 4.3 0.00 0.00 0.00 64 1012.0
20260504184533 66 80 0.0 4.3 0.00 0.00 0.00 66 1012.1
20260504183023 65 343 0.9 3.5 0.00 0.00 0.00 68 1012.2
20260504181523 64 38 0.9 3.5 0.00 0.00 0.00 69 1012.3
20260504180018 63 11 0.9 3.5 0.00 0.00 0.00 71 1012.1
20260504174514 62 9 1.7 4.3 0.00 0.00 0.00 75 1012.1
20260504173011 60 13 0.0 2.6 0.00 0.00 0.00 78 1012.2
20260504171507 59 88 0.0 1.7 0.00 0.00 0.00 79 1012.1